This demonstration page uses our WeatherBlox Daily Observations layout. Learn more.

Left ArrowRight Arrow

Hourly Observations for May 15, 2016

Temp ( °F °C ) Dew Point ( °F °C ) Humidity (%) Winds ( mph kmh ) Pressure ( in mb ) Visibility ( mi km ) Precip ( " mm )
12:51 am 00:51 Mostly Clear 77 25 42 5.6 29 29 E 8 13 29.70 1006 10 16 0.00 0.00
1:51 am 01:51 Clear 76 24.4 42 5.6 30 30 ESE 10 17 29.69 1005 10 16 0.00 0.00
2:51 am 02:51 Clear 76 24.4 42 5.6 30 30 E 13 20 29.68 1005 10 16 0.00 0.00
3:51 am 03:51 Clear 75 23.9 43 6.1 32 32 E 13 20 29.68 1005 10 16 0.00 0.00
4:51 am 04:51 Clear 74 23.3 40 4.4 29 29 E 12 19 29.68 1005 10 16 0.00 0.00
5:51 am 05:51 Sunny 72 22.2 42 5.6 34 34 E 15 24 29.70 1006 10 16 0.00 0.00
6:51 am 06:51 Sunny 71 21.7 42 5.6 35 35 E 10 17 29.73 1007 10 16 0.00 0.00
7:51 am 07:51 Sunny 77 25 39 3.9 26 26 ESE 13 20 29.73 1007 10 16 0.00 0.00
8:51 am 08:51 Sunny 80 26.7 34 1.1 19 19 SE 16 26 29.72 1006 10 16 0.00 0.00
9:51 am 09:51 Sunny 85 29.4 28 -2.2 13 13 S 17 28 29.70 1006 10 16 0.00 0.00
10:51 am 10:51 Sunny 87 30.6 25 -3.9 10 10 S 17 28 29.67 1005 10 16 0.00 0.00
11:51 am 11:51 Sunny 90 32.2 19 -7.2 7 7 SSW 14 22 29.64 1004 10 16 0.00 0.00
12:51 pm 12:51 Sunny 91 32.8 19 -7.2 7 7 WSW 14 22 29.62 1003 10 16 0.00 0.00
1:51 pm 13:51 Sunny 93 33.9 18 -7.8 6 6 VRB 6 9 29.59 1002 10 16 0.00 0.00
2:51 pm 14:51 Sunny 94 34.4 16 -8.9 6 6 WSW 8 13 29.56 1001 10 16 0.00 0.00
3:51 pm 15:51 Sunny 95 35 8 -13.3 4 4 W 25 41 29.53 1000 10 16 0.00 0.00
4:51 pm 16:51 Sunny 92 33.3 13 -10.6 5 5 WNW 18 30 29.55 1001 10 16 0.00 0.00
5:51 pm 17:51 Sunny 90 32.2 5 -15 4 4 W 18 30 29.56 1001 10 16 0.00 0.00
6:51 pm 18:51 Sunny 86 30 6 -14.4 5 5 W 16 26 29.58 1002 10 16 0.00 0.00
7:51 pm 19:51 Clear 81 27.2 9 -12.8 6 6 WNW 14 22 29.61 1003 10 16 0.00 0.00
8:51 pm 20:51 Clear 77 25 13 -10.6 9 9 NW 10 17 29.63 1003 10 16 0.00 0.00
9:51 pm 21:51 Clear 72 22.2 17 -8.3 12 12 NW 7 11 29.65 1004 10 16 0.00 0.00
10:51 pm 22:51 Clear 71 21.7 19 -7.2 14 14 NW 9 15 29.66 1004 10 16 0.00 0.00
11:51 pm 23:51 Clear 71 21.7 20 -6.7 14 14 NNW 13 20 29.65 1004 10 16 0.00 0.00

Powered by AerisWeather